H1 CPF 2 NER 2021 2 10 9 041 01 glonass131 H2 1301901 9131 39155 2021 2 10 0 0 0 2021 2 13 23 45 0 900 1 1 0 0 0 1 H9 10 0 59255 0.00000 0 -9596197.275 10208997.882 21339797.353 10 0 59255 900.00000 0 -12128259.398 10396963.161 19904459.457 10 0 59255 1800.00000 0 -14441713.701 10746267.978 18083184.069 10 0 59255 2700.00000 0 -16482641.850 11219184.456 15910999.601 10 0 59255 3600.00000 0 -18206680.592 11769637.581 13429800.434 10 0 59255 4500.00000 0 -19580673.385 12345266.070 10687557.274 10 0 59255 5400.00000 0 -20583868.162 12889769.588 7737403.343 10 0 59255 6300.00000 0 -21208609.307 13345444.114 4636612.521 10 0 59255 7200.00000 0 -21460492.943 13655798.242 1445488.503 10 0 59255 8100.00000 0 -21357977.248 13768138.712 -1773813.576 10 0 59255 9000.00000 0 -20931462.781 13636013.819 -4958509.498 10 0 59255 9900.00000 0 -20221880.691 13221408.680 -8046427.067 10 0 59255 10800.00000 0 -19278848.329 12496596.356 -10977239.948 10 0 59255 11700.00000 0 -18158470.772 11445563.304 -13693667.975 10 0 59255 12600.00000 0 -16920882.490 10064945.898 -16142618.121 10 0 59255 13500.00000 0 -15627634.905 8364435.889 -18276241.668 10 0 59255 14400.00000 0 -14339042.325 6366635.721 -20052885.050 10 0 59255 15300.00000 0 -13111600.488 4106368.657 -21437914.302 10 0 59255 16200.00000 0 -11995588.501 1629472.244 -22404396.129 10 0 59255 17100.00000 0 -11032956.657 -1008874.054 -22933622.030 10 0 59255 18000.00000 0 -10255589.793 -3746216.173 -23015465.433 10 0 59255 18900.00000 0 -9684019.189 -6515200.251 -22648565.678 10 0 59255 19800.00000 0 -9326636.278 -9246154.626 -21840336.408 10 0 59255 20700.00000 0 -9179439.598 -11869770.277 -20606799.639 10 0 59255 21600.00000 0 -9226323.416 -14319767.447 -18972250.404 10 0 59255 22500.00000 0 -9439893.242 -16535437.287 -16968760.117 10 0 59255 23400.00000 0 -9782771.230 -18463953.204 -14635530.066 10 0 59255 24300.00000 0 -10209333.869 -20062356.877 -12018109.084 10 0 59255 25200.00000 0 -10667806.462 -21299138.083 -9167491.952 10 0 59255 26100.00000 0 -11102624.380 -22155344.832 -6139117.207 10 0 59255 27000.00000 0 -11456960.361 -22625180.225 -2991784.628 10 0 59255 27900.00000 0 -11675310.791 -22716064.124 213486.208 10 0 59255 28800.00000 0 -11706032.116 -22448159.875 3414633.948 10 0 59255 29700.00000 0 -11503721.119 -21853388.358 6549747.579 10 0 59255 30600.00000 0 -11031339.916 -20973972.756 9558250.327 10 0 59255 31500.00000 0 -10261997.437 -19860576.090 12382053.378 10 0 59255 32400.00000 0 -9180313.675 -18570110.104 14966658.635 10 0 59255 33300.00000 0 -7783310.354 -17163306.940 17262190.933 10 0 59255 34200.00000 0 -6080791.058 -15702154.199 19224341.559 10 0 59255 35100.00000 0 -4095194.697 -14247299.106 20815206.796 10 0 59255 36000.00000 0 -1860927.295 -12855528.274 22004007.034 10 0 59255 36900.00000 0 576801.760 -11577426.365 22767673.980 10 0 59255 37800.00000 0 3163593.048 -10455309.515 23091295.669 10 0 59255 38700.00000 0 5837856.003 -9521518.322 22968411.103 10 0 59255 39600.00000 0 8533113.464 -8797140.790 22401148.592 10 0 59255 40500.00000 0 11180519.541 -8291218.382 21400204.279 10 0 59255 41400.00000 0 13711489.258 -8000468.867 19984659.716 10 0 59255 42300.00000 0 16060333.088 -7909538.788 18181640.016 10 0 59255 43200.00000 0 18166788.589 -7991776.609 16025816.842 10 0 59255 44100.00000 0 19978344.574 -8210496.032 13558763.276 10 0 59255 45000.00000 0 21452260.703 -8520678.271 10828170.715 10 0 59255 45900.00000 0 22557197.295 -8871043.186 7886940.857 10 0 59255 46800.00000 0 23274385.511 -9206402.912 4792168.771 10 0 59255 47700.00000 0 23598286.863 -9470198.808 1604035.989 10 0 59255 48600.00000 0 23536712.251 -9607113.759 -1615365.059 10 0 59255 49500.00000 0 23110393.651 -9565647.727 -4803251.797 10 0 59255 50400.00000 0 22352025.063 -9300545.182 -7897392.286 10 0 59255 51300.00000 0 21304812.453 -8774968.722 -10837340.045 10 0 59255 52200.00000 0 20020593.865 -7962323.675 -13565636.680 10 0 59255 53100.00000 0 18557609.885 -6847653.347 -16028956.400 10 0 59255 54000.00000 0 16978019.968 -5428543.053 -18179167.945 10 0 59255 54900.00000 0 15345271.287 -3715492.428 -19974291.240 10 0 59255 55800.00000 0 13721433.127 -1731738.673 -21379328.545 10 0 59255 56700.00000 0 12164611.033 487462.705 -22366952.999 10 0 59255 57600.00000 0 10726551.136 2896069.675 -22918040.760 10 0 59255 58500.00000 0 9450536.367 5438945.807 -23022036.554 10 0 59255 59400.00000 0 8369663.143 8053941.060 -22677146.265 10 0 59255 60300.00000 0 7505570.224 10674273.139 -21890353.957 10 0 59255 61200.00000 0 6867671.684 13231108.794 -20677264.410 10 0 59255 62100.00000 0 6452923.972 15656236.524 -19061775.905 10 0 59255 63000.00000 0 6246134.151 17884718.771 -17075591.259 10 0 59255 63900.00000 0 6220793.381 19857413.015 -14757578.331 10 0 59255 64800.00000 0 6340397.506 21523257.419 -12152993.975 10 0 59255 65700.00000 0 6560196.386 22841227.035 -9312587.861 10 0 59255 66600.00000 0 6829295.888 23781880.770 -6291604.742 10 0 59255 67500.00000 0 7093022.147 24328436.940 -3148705.367 10 0 59255 68400.00000 0 7295447.321 24477335.072 55172.574 10 0 59255 69300.00000 0 7381969.903 24238263.079 3257991.177 10 0 59255 70200.00000 0 7301841.098 23633651.318 6397804.270 10 0 59255 71100.00000 0 7010531.518 22697656.686 9413942.200 10 0 59255 72000.00000 0 6471839.621 21474680.584 12248167.514 10 0 59255 72900.00000 0 5659654.406 20017483.770 14845780.678 10 0 59255 73800.00000 0 4559299.289 18384976.660 17156656.172 10 0 59255 74700.00000 0 3168401.516 16639776.812 19136190.751 10 0 59255 75600.00000 0 1497250.807 14845634.162 20746147.496 10 0 59255 76500.00000 0 -431368.472 13064829.468 21955381.090 10 0 59255 77400.00000 0 -2582865.918 11355652.358 22740431.769 10 0 59255 78300.00000 0 -4912027.965 9770061.969 23085977.503 10 0 59255 79200.00000 0 -7364648.553 8351625.718 22985136.181 10 0 59255 80100.00000 0 -9879542.898 7133820.761 22439611.734 10 0 59255 81000.00000 0 -12390863.979 6138768.104 21459680.561 10 0 59255 81900.00000 0 -14830628.725 5376452.063 20064017.025 10 0 59255 82800.00000 0 -17131351.524 4844458.335 18279359.408 10 0 59255 83700.00000 0 -19228677.598 4528242.733 16140020.441 10 0 59255 84600.00000 0 -21063907.820 4401920.914 13687249.317 10 0 59255 85500.00000 0 -22586309.827 4429547.646 10968455.200 10 0 59256 0.00000 0 -23755118.322 4566833.365 8036305.154 10 0 59256 900.00000 0 -24541139.105 4763226.759 4947711.972 10 0 59256 1800.00000 0 -24927888.397 4964276.269 1762731.698 10 0 59256 2700.00000 0 -24912215.703 5114169.859 -1456609.325 10 0 59256 3600.00000 0 -24504383.595 5158345.019 -4647533.469 10 0 59256 4500.00000 0 -23727597.716 5046056.103 -7747752.248 10 0 59256 5400.00000 0 -22617006.110 4732787.841 -10696702.078 10 0 59256 6300.00000 0 -21218209.246 4182409.650 -13436749.156 10 0 59256 7200.00000 0 -19585343.789 3368976.457 -15914337.481 10 0 59256 8100.00000 0 -17778821.875 2278096.786 -18081055.444 10 0 59256 9000.00000 0 -15862822.587 907807.688 -19894598.211 10 0 59256 9900.00000 0 -13902643.213 -731082.379 -21319605.517 10 0 59256 10800.00000 0 -11962023.566 -2615198.466 -22328357.630 10 0 59256 11700.00000 0 -10100557.519 -4709343.802 -22901315.500 10 0 59256 12600.00000 0 -8371301.660 -6967752.755 -23027494.734 10 0 59256 13500.00000 0 -6818681.884 -9335798.898 -22704666.829 10 0 59256 14400.00000 0 -5476785.341 -11752085.634 -21939384.877 10 0 59256 15300.00000 0 -4368108.207 -14150830.731 -20746834.633 10 0 59256 16200.00000 0 -3502809.754 -16464444.009 -19150515.509 10 0 59256 17100.00000 0 -2878501.320 -18626189.793 -17181759.342 10 0 59256 18000.00000 0 -2480576.005 -20572822.482 -14879097.999 10 0 59256 18900.00000 0 -2283061.885 -22247085.458 -12287493.693 10 0 59256 19800.00000 0 -2249959.664 -23599969.789 -9457448.276 10 0 59256 20700.00000 0 -2337005.581 -24592639.701 -6444010.031 10 0 59256 21600.00000 0 -2493782.920 -25197946.267 -3305698.086 10 0 59256 22500.00000 0 -2666091.418 -25401468.262 -103365.746 10 0 59256 23400.00000 0 -2798473.703 -25202039.015 3100974.929 10 0 59256 24300.00000 0 -2836791.983 -24611739.631 6245344.889 10 0 59256 25200.00000 0 -2730746.763 -23655360.860 9268983.769 10 0 59256 26100.00000 0 -2436232.359 -22369357.751 12113507.533 10 0 59256 27000.00000 0 -1917431.191 -20800341.653 14724017.125 10 0 59256 27900.00000 0 -1148559.922 -19003172.749 17050138.426 10 0 59256 28800.00000 0 -115195.145 -17038732.381 19046975.222 10 0 59256 29700.00000 0 1184876.512 -14971466.655 20675958.708 10 0 59256 30600.00000 0 2741319.624 -12866801.941 21905578.911 10 0 59256 31500.00000 0 4531437.531 -10788537.733 22711985.336 10 0 59256 32400.00000 0 6520880.159 -8796322.953 23079446.344 10 0 59256 33300.00000 0 8664844.979 -6943318.506 23000658.871 10 0 59256 34200.00000 0 10909723.962 -5274141.503 22476902.353 10 0 59256 35100.00000 0 13195131.283 -3823175.346 21518033.076 10 0 59256 36000.00000 0 15456230.637 -2613315.380 20142317.602 10 0 59256 36900.00000 0 17626268.252 -1655202.482 18376106.536 10 0 59256 37800.00000 0 19639208.529 -946977.267 16253352.582 10 0 59256 38700.00000 0 21432364.075 -474566.328 13814979.698 10 0 59256 39600.00000 0 22948910.948 -212490.048 11108113.161 10 0 59256 40500.00000 0 24140183.701 -125159.517 8185183.298 10 0 59256 41400.00000 0 24967652.924 -168609.199 5102918.600 10 0 59256 42300.00000 0 25404500.337 -292593.089 1921246.872 10 0 59256 43200.00000 0 25436722.927 -442955.836 -1297874.507 10 0 59256 44100.00000 0 25063717.078 -564177.812 -4491675.928 10 0 59256 45000.00000 0 24298315.707 -601984.836 -7597815.496 10 0 59256 45900.00000 0 23166274.890 -505909.738 -10555615.632 10 0 59256 46800.00000 0 21705230.326 -231694.436 -13307270.079 10 0 59256 47700.00000 0 19963167.131 256572.254 -15798995.350 10 0 59256 48600.00000 0 17996467.767 984674.592 -17982101.930 10 0 59256 49500.00000 0 15867621.267 1966925.780 -19813962.360 10 0 59256 50400.00000 0 13642691.686 3205318.665 -21258855.686 10 0 59256 51300.00000 0 11388653.908 4689208.743 -22288670.817 10 0 59256 52200.00000 0 9170710.338 6395543.670 -22883454.695 10 0 59256 53100.00000 0 7049702.431 8289629.730 -23031794.663 10 0 59256 54000.00000 0 5079726.294 10326402.589 -22731028.330 10 0 59256 54900.00000 0 3306052.194 12452148.121 -21987277.916 10 0 59256 55800.00000 0 1763434.323 14606599.922 -20815309.846 10 0 59256 56700.00000 0 474879.849 16725324.471 -19238223.930 10 0 59256 57600.00000 0 -549073.645 18742293.063 -17286979.865 10 0 59256 58500.00000 0 -1310545.027 20592532.142 -14999771.962 10 0 59256 59400.00000 0 -1823956.368 22214740.925 -12421265.823 10 0 59256 60300.00000 0 -2115157.889 23553767.167 -9601713.154 10 0 59256 61200.00000 0 -2220071.155 24562838.308 -6595963.124 10 0 59256 62100.00000 0 -2182910.515 25205456.078 -3462390.310 10 0 59256 63000.00000 0 -2054059.955 25456877.042 -261760.519 10 0 59256 63900.00000 0 -1887696.404 25305119.236 2943943.272 10 0 59256 64800.00000 0 -1739260.433 24751454.896 6092712.407 10 0 59256 65700.00000 0 -1662880.995 23810370.584 9123699.047 10 0 59256 66600.00000 0 -1708862.134 22508998.009 11978375.688 10 0 59256 67500.00000 0 -1921336.457 20886040.296 14601646.689 10 0 59256 68400.00000 0 -2336182.900 18990238.973 16942892.043 10 0 59256 69300.00000 0 -2979295.062 16878445.282 18956925.022 10 0 59256 70200.00000 0 -3865271.893 14613375.115 20604847.112 10 0 59256 71100.00000 0 -4996585.275 12261139.297 21854785.558 10 0 59256 72000.00000 0 -6363259.613 9888649.735 22682500.684 10 0 59256 72900.00000 0 -7943077.989 7561006.825 23071852.410 10 0 59256 73800.00000 0 -9702308.148 5338974.146 23015117.479 10 0 59256 74700.00000 0 -11596920.532 3276643.195 22513151.125 10 0 59256 75600.00000 0 -13574250.617 1419383.374 21575389.304 10 0 59256 76500.00000 0 -15575039.492 -197838.713 20219690.028 10 0 59256 77400.00000 0 -17535770.647 -1551701.112 18472014.908 10 0 59256 78300.00000 0 -19391208.237 -2631277.563 16365954.773 10 0 59256 79200.00000 0 -21077032.859 -3438265.567 13942105.977 10 0 59256 80100.00000 0 -22532465.788 -3986680.664 11247307.103 10 0 59256 81000.00000 0 -23702771.950 -4302028.348 8333748.643 10 0 59256 81900.00000 0 -24541535.930 -4419987.107 5257971.225 10 0 59256 82800.00000 0 -25012613.683 -4384657.058 2079770.890 10 0 59256 83700.00000 0 -25091675.606 -4246447.665 -1138967.613 10 0 59256 84600.00000 0 -24767273.274 -4059694.185 -4335486.358 10 0 59256 85500.00000 0 -24041382.170 -3880104.749 -7447393.634 10 0 59257 0.00000 0 -22929395.127 -3762148.058 -10413901.268 10 0 59257 900.00000 0 -21459564.491 -3756495.143 -13177033.925 10 0 59257 1800.00000 0 -19671916.270 -3907625.329 -15682783.578 10 0 59257 2700.00000 0 -17616680.279 -4251702.647 -17882185.419 10 0 59257 3600.00000 0 -15352304.012 -4814813.296 -19732291.537 10 0 59257 4500.00000 0 -12943134.125 -5611642.480 -21197021.887 10 0 59257 5400.00000 0 -10456864.619 -6644647.640 -22247875.020 10 0 59257 6300.00000 0 -7961860.273 -7903764.245 -22864484.209 10 0 59257 7200.00000 0 -5524469.000 -9366656.802 -23035008.244 10 0 59257 8100.00000 0 -3206436.614 -10999504.213 -22756349.956 10 0 59257 9000.00000 0 -1062532.508 -12758285.639 -22034199.295 10 0 59257 9900.00000 0 861514.849 -14590511.580 -20882901.517 10 0 59257 10800.00000 0 2530687.555 -16437326.198 -19325154.644 10 0 59257 11700.00000 0 3921885.349 -18235891.389 -17391543.788 10 0 59257 12600.00000 0 5024622.300 -19921951.551 -15119923.056 10 0 59257 13500.00000 0 5841187.251 -21432470.883 -12554658.668 10 0 59257 14400.00000 0 6386264.826 -22708232.547 -9745749.341 10 0 59257 15300.00000 0 6686036.408 -23696291.105 -6747842.260 10 0 59257 16200.00000 0 6776802.111 -24352176.362 -3619164.626 10 0 59257 17100.00000 0 6703184.552 -24641757.685 -420391.981 10 0 59257 18000.00000 0 6515992.053 -24542692.394 2786524.453 10 0 59257 18900.00000 0 6269832.620 -24045399.340 5939548.945 10 0 59257 19800.00000 0 6020579.774 -23153518.856 8977748.567 10 0 59257 20700.00000 0 5822796.688 -21883841.265 11842454.546 10 0 59257 21600.00000 0 5727226.318 -20265708.018 14478376.643 10 0 59257 22500.00000 0 5778451.963 -18339911.052 16834650.719 10 0 59257 23400.00000 0 6012825.218 -16157136.044 18865801.010 10 0 59257 24300.00000 0 6456747.089 -13776013.503 20532600.496 10 0 59257 25200.00000 0 7125373.508 -11260857.147 21802814.514 10 0 59257 26100.00000 0 8021799.206 -8679181.418 22651814.754 10 0 59257 27000.00000 0 9136754.520 -6099098.730 23063052.934 10 0 59257 27900.00000 0 10448829.106 -3586701.761 23028385.530 10 0 59257 28800.00000 0 11925215.143 -1203536.974 22548243.229 10 0 59257 29700.00000 0 13522941.612 995728.001 21631641.068 10 0 59257 30600.00000 0 15190551.114 2965347.884 20296027.694 10 0 59257 31500.00000 0 16870152.217 4670170.099 18566974.715 10 0 59257 32400.00000 0 18499764.456 6086862.672 16477709.874 10 0 59257 33300.00000 0 20015860.274 7204648.035 14068500.519 10 0 59257 34200.00000 0 21355998.985 8025510.996 11385896.911 10 0 59257 35100.00000 0 22461442.998 8563870.915 8481847.841 10 0 59257 36000.00000 0 23279646.105 8845730.417 5412703.963 10 0 59257 36900.00000 0 23766507.837 8907335.269 2238127.206 10 0 59257 37800.00000 0 23888296.938 8793401.152 -980072.869 10 0 59257 38700.00000 0 23623160.172 8554982.133 -4179152.716 10 0 59257 39600.00000 0 22962149.980 8247071.583 -7296673.577 10 0 59257 40500.00000 0 21909724.759 7926038.502 -10271739.529 10 0 59257 41400.00000 0 20483698.241 7647009.892 -13046208.562 10 0 59257 42300.00000 0 18714638.265 7461312.603 -15565850.623 10 0 59257 43200.00000 0 16644739.265 7414085.781 -17781427.849 10 0 59257 44100.00000 0 14326215.624 7542167.717 -19649673.833 10 0 59257 45000.00000 0 11819284.018 7872348.931 -21134151.193 10 0 59257 45900.00000 0 9189820.483 8420067.218 -22205969.640 10 0 59257 46800.00000 0 6506791.821 9188601.002 -22844350.087 10 0 59257 47700.00000 0 3839570.372 10168795.499 -23037023.830 10 0 59257 48600.00000 0 1255245.666 11339333.006 -22780459.715 10 0 59257 49500.00000 0 -1183954.064 12667535.137 -22079915.882 10 0 59257 50400.00000 0 -3423022.681 14110661.924 -20949316.500 10 0 59257 51300.00000 0 -5416221.503 15617651.659 -19410957.490 10 0 59257 52200.00000 0 -7128725.437 17131226.797 -17495048.632 10 0 59257 53100.00000 0 -8537803.366 18590276.000 -15239102.676 10 0 59257 54000.00000 0 -9633486.482 19932411.221 -12687184.917 10 0 59257 54900.00000 0 -10418699.978 21096591.818 -9889039.191 10 0 59257 55800.00000 0 -10908856.096 22025705.397 -6899108.514 10 0 59257 56700.00000 0 -11130929.103 22668997.498 -3775470.244 10 0 59257 57600.00000 0 -11122054.173 22984249.084 -578706.989 10 0 59257 58500.00000 0 -10927711.555 22939611.754 2629264.605 10 0 59257 59400.00000 0 -10599574.373 22515025.406 5786384.679 10 0 59257 60300.00000 0 -10193111.574 21703160.500 8831638.216 10 0 59257 61200.00000 0 -9765047.112 20509846.871 11706218.196 10 0 59257 62100.00000 0 -9370781.864 18953972.442 14354642.787 10 0 59257 63000.00000 0 -9061885.577 17066856.429 16725806.644 10 0 59257 63900.00000 0 -8883762.920 14891123.281 18773947.763 10 0 59257 64800.00000 0 -8873590.196 12479123.593 20459513.226 10 0 59257 65700.00000 0 -9058607.887 9890965.987 21749908.847 10 0 59257 66600.00000 0 -9454839.796 7192239.783 22620119.793 10 0 59257 67500.00000 0 -10066292.158 4451520.414 23053191.339 10 0 59257 68400.00000 0 -10884666.769 1737758.239 23040561.065 10 0 59257 69300.00000 0 -11889601.430 -882343.665 22582236.018 10 0 59257 70200.00000 0 -13049429.643 -3346856.513 21686810.714 10 0 59257 71100.00000 0 -14322430.397 -5600954.886 20371324.277 10 0 59257 72000.00000 0 -15658518.556 -7598952.390 18660957.587 10 0 59257 72900.00000 0 -17001307.982 -9305959.955 16588573.997 10 0 59257 73800.00000 0 -18290463.504 -10699097.607 14194109.982 10 0 59257 74700.00000 0 -19464244.975 -11768208.314 11523825.125 10 0 59257 75600.00000 0 -20462137.701 -12516042.876 8629423.724 10 0 59257 76500.00000 0 -21227458.774 -12957906.667 5567063.306 10 0 59257 77400.00000 0 -21709828.670 -13120781.646 2396268.270 10 0 59257 78300.00000 0 -21867402.181 -13041959.535 -821230.614 10 0 59257 79200.00000 0 -21668762.048 -12767243.301 -4022707.900 10 0 59257 80100.00000 0 -21094392.455 -12348793.029 -7145681.538 10 0 59257 81000.00000 0 -20137667.105 -11842708.252 -10129151.534 10 0 59257 81900.00000 0 -18805307.283 -11306450.659 -12914812.932 10 0 59257 82800.00000 0 -17117288.267 -10796218.517 -15448217.053 10 0 59257 83700.00000 0 -15106196.309 -10364386.483 -17679856.094 10 0 59257 84600.00000 0 -12816062.362 -10057121.817 -19566147.889 10 0 59257 85500.00000 0 -10300721.527 -9912280.247 -21070299.922 10 0 59258 0.00000 0 -7621767.712 -9957672.356 -22163034.658 10 0 59258 900.00000 0 -4846190.075 -10209775.451 -22823161.617 10 0 59258 1800.00000 0 -2043791.936 -10672944.767 -23037984.886 10 0 59258 2700.00000 0 715498.971 -11339159.048 -22803538.965 10 0 59258 3600.00000 0 3364315.765 -12188308.387 -22124649.281 10 0 59258 4500.00000 0 5840420.295 -13189012.215 -21014817.532 10 0 59258 5400.00000 0 8089047.043 -14299930.690 -19495935.749 10 0 59258 6300.00000 0 10064926.285 -15471512.612 -17597836.260 10 0 59258 7200.00000 0 11733903.810 -16648104.484 -15357688.058 10 0 59258 8100.00000 0 13074092.146 -17770330.488 -12819252.865 10 0 59258 9000.00000 0 14076508.266 -18777642.132 -10032016.773 10 0 59258 9900.00000 0 14745174.394 -19610929.734 -7050215.587 10 0 59258 10800.00000 0 15096681.250 -20215085.877 -3931773.677 10 0 59258 11700.00000 0 15159235.311 -20541413.568 -737177.489 10 0 59258 12600.00000 0 14971232.937 -20549778.833 2471694.114 10 0 59258 13500.00000 0 14579423.580 -20210418.687 5632760.277 10 0 59258 14400.00000 0 14036740.733 -19505329.984 8684926.843 10 0 59258 15300.00000 0 13399892.481 -18429182.379 11569251.268 10 0 59258 16200.00000 0 12726812.807 -16989718.255 14230062.537 10 0 59258 17100.00000 0 12074079.932 -15207623.475 16616016.159 10 0 59258 18000.00000 0 11494408.878 -13115874.662 18681065.604 10 0 59258 18900.00000 0 11034321.829 -10758589.435 20385333.368 10 0 59258 19800.00000 0 10732092.386 -8189426.166 21695866.669 10 0 59258 20700.00000 0 10616048.513 -5469597.865 22587264.678 10 0 59258 21600.00000 0 10703304.322 -2665579.983 23042166.387 10 0 59258 22500.00000 0 10998973.595 153395.616 23051590.277 10 0 59258 23400.00000 0 11495898.485 2917959.511 22615119.231 10 0 59258 24300.00000 0 12174906.058 5561230.692 21740926.428 10 0 59258 25200.00000 0 13005583.908 8021343.155 20445640.405 10 0 59258 26100.00000 0 13947544.806 10243769.982 18754050.009 10 0 59258 27000.00000 0 14952130.029 12183349.379 16698652.702 10 0 59258 27900.00000 0 15964482.472 13805928.659 14319052.399 10 0 59258 28800.00000 0 16925904.600 15089557.018 11661216.118 10 0 59258 29700.00000 0 17776403.554 16025176.234 8776601.593 10 0 59258 30600.00000 0 18457316.828 16616778.904 5721170.972 10 0 59258 31500.00000 0 18913907.424 16881025.937 2554308.710 10 0 59258 32400.00000 0 19097817.633 16846338.051 -662335.759 10 0 59258 33300.00000 0 18969275.581 16551498.553 -3866057.690 10 0 59258 34200.00000 0 18498958.557 16043825.993 -6994334.343 10 0 59258 35100.00000 0 17669431.217 15376994.338 -9986064.174 10 0 59258 36000.00000 0 16476094.813 14608593.936 -12782781.646 10 0 59258 36900.00000 0 14927604.563 13797538.245 -15329821.619 10 0 59258 37800.00000 0 13045735.316 13001428.295 -17577408.298 10 0 59258 38700.00000 0 10864699.627 12273988.801 -19481645.481 10 0 59258 39600.00000 0 8429946.276 11662686.715 -21005387.034 10 0 59258 40500.00000 0 5796489.689 11206634.888 -22118969.533 10 0 59258 41400.00000 0 3026840.952 10934870.823 -22800792.208 10 0 59258 42300.00000 0 188628.190 10865083.913 -23037732.897 10 0 59258 43200.00000 0 -2647993.051 11002844.812 -22825392.492 10 0 59258 44100.00000 0 -5413030.163 11341368.637 -22168164.121 10 0 59258 45000.00000 0 -8039331.513 11861820.554 -21079127.091 10 0 59258 45900.00000 0 -10465140.335 12534149.000 -19579769.233 10 0 59258 46800.00000 0 -12636418.516 13318409.298 -17699544.732 10 0 59258 47700.00000 0 -14508844.544 14166519.743 -15475277.749 10 0 59258 48600.00000 0 -16049404.288 15024374.232 -12950425.039 10 0 59258 49500.00000 0 -17237510.809 15834220.799 -10174213.284 10 0 59258 50400.00000 0 -18065609.386 16537204.783 -7200669.181 10 0 59258 51300.00000 0 -18539245.793 17075968.936 -4087562.025 10 0 59258 52200.00000 0 -18676598.217 17397201.011 -895279.878 10 0 59258 53100.00000 0 -18507495.487 17454022.188 2314338.559 10 0 59258 54000.00000 0 -18071965.383 17208116.850 5479193.927 10 0 59258 54900.00000 0 -17418375.767 16631515.408 8538115.573 10 0 59258 55800.00000 0 -16601247.740 15707956.682 11432028.161 10 0 59258 56700.00000 0 -15678832.817 14433773.757 14105074.304 10 0 59258 57600.00000 0 -14710555.404 12818267.081 16505673.211 10 0 59258 58500.00000 0 -13754426.743 10883549.462 18587496.615 10 0 59258 59400.00000 0 -12864537.138 8663869.054 20310345.126 10 0 59258 60300.00000 0 -12088729.772 6204437.368 21640909.883 10 0 59258 61200.00000 0 -11466551.713 3559809.239 22553406.342 10 0 59258 62100.00000 0 -11027566.471 791879.583 23030069.170 10 0 59258 63000.00000 0 -10790097.794 -2032422.835 23061499.351 10 0 59258 63900.00000 0 -10760457.038 -4843651.992 22646856.780 10 0 59258 64800.00000 0 -10932686.997 -7572470.302 21793894.012 10 0 59258 65700.00000 0 -11288834.177 -10152277.277 20518829.211 10 0 59258 66600.00000 0 -11799739.986 -12521734.146 18846058.899 10 0 59258 67500.00000 0 -12426319.951 -14627081.064 16807713.821 10 0 59258 68400.00000 0 -13121279.614 -16424151.125 14443064.008 10 0 59258 69300.00000 0 -13831197.196 -17879996.980 11797782.117 10 0 59258 70200.00000 0 -14498887.042 -18974061.260 8923077.100 10 0 59258 71100.00000 0 -15065945.219 -19698840.391 5874713.144 10 0 59258 72000.00000 0 -15475369.888 -20060012.164 2711931.868 10 0 59258 72900.00000 0 -15674144.866 -20076020.064 -503701.759 10 0 59258 73800.00000 0 -15615675.356 -19777130.407 -3709507.043 10 0 59258 74700.00000 0 -15261970.272 -19204001.151 -6842924.044 10 0 59258 75600.00000 0 -14585475.851 -18405822.652 -9842753.250 10 0 59258 76500.00000 0 -13570479.736 -17438109.453 -12650372.177 10 0 59258 77400.00000 0 -12214023.198 -16360237.771 -15210902.784 10 0 59258 78300.00000 0 -10526280.238 -15232834.634 -17474304.685 10 0 59258 79200.00000 0 -8530385.570 -14115131.210 -19396370.763 10 0 59258 80100.00000 0 -6261717.452 -13062394.440 -20939603.988 10 0 59258 81000.00000 0 -3766664.997 -12123547.457 -22073957.250 10 0 59258 81900.00000 0 -1100931.837 -11339080.794 -22777421.164 10 0 59258 82800.00000 0 1672551.966 -10739343.364 -23036448.360 10 0 59258 83700.00000 0 4486021.416 -10343285.372 -22846206.566 10 0 59258 84600.00000 0 7269470.449 -10157705.445 -22210656.530 10 0 59258 85500.00000 0 9953338.861 -10177032.267 -21142454.580 99